Location: Juzet
(42.9779°N, 0.7597°E)
Time: 02:55:15
(UTC+00:00)

Cosmos 405 Rocket - Pass Details

Date: 14 July 2020
Orbit: 489 x 555 km, 81.3° (Epoch: 04 August)

Event Time Altitude Azimuth Distance (km) Brightness Sun altitude
Exits shadow 00:52:54 35° 79° (E) 846 3.9 -24.4°
Drops below altitude 10° 00:56:00 10° 27° (NNE) 1,726 6.4 -24.2°
Sets 00:58:13 0° 19° (NNE) 2,606 7.7 -24.1°
